Weather History for Caldwell, ID

Change the Weather History Date:

Thursday, June 6, 2013

  Actual Average (KBOI) Record (KBOI)
Temperature  
Mean Temperature 71 °F 65 °F  
Max Temperature 91 °F 78 °F 101 °F (1977)
Min Temperature 51 °F 52 °F 34 °F (1899)
Degree Days  
Heating Degree Days 0 3  
Month to date heating degree days 22  
Since 1 June heating degree days 22  
Since 1 July heating degree days 5472  
Cooling Degree Days 6 3  
Month to date cooling degree days 17  
Year to date cooling degree days 61  
Since 1 June cooling degree days 17  
Growing Degree Days 21 (Base 50)    
Moisture  
Dew Point 45 °F    
Average Humidity 41    
Maximum Humidity 67    
Minimum Humidity 20    
Precipitation  
Precipitation 0.00 in 0.03 in 0.86 in (1941)
Month to date precipitation 0.20  
Year to date precipitation 6.44  
Snow  
Snow 0.00 in 0.00 in 0.00 in (2007)
Month to date snowfall 0.0  
Since 1 July snowfall 19.2  
Snow Depth -    
Sea Level Pressure  
Sea Level Pressure 29.95 in    
Wind  
Wind Speed 2 mph (North)    
Max Wind Speed 10 mph    
Max Gust Speed 16 mph    
Visibility 10 miles    
Events      
T = Trace of Precipitation, MM = Missing Value Source: NWS Daily Summary

Daily Weather History Graph

Daily Weather History Graph

Search for Another Location

Airport:

Trip Planner

Search our weather history database for the weather conditions in past years. The results will help you decide how hot, cold, wet, or windy it might be!

Date:

Astronomy

Jun. 06, 2013 Rise Set
Actual Time 6:05 AM MDT 9:25 PM MDT
Civil Twilight 5:30 AM MDT 10:00 PM MDT
Nautical Twilight 4:44 AM MDT 10:46 PM MDT
Astronomical Twilight 3:47 AM MDT 11:44 PM MDT
Moon 4:53 AM MDT (6/6) 7:48 PM MDT (6/6)
Length of Visible Light 16h 30m
Length of Day
15h 19m
Waning Crescent, 3% of the Moon is Illuminated
Jun 6
Waning Crescent
Jun 8
New
Jun 16
First Quarter
Jun 23
Full
Jun 29
Last Quarter

Hourly Weather History & Observations

Time (MDT) Temp. Dew Point Humidity Pressure Visibility Wind Dir Wind Speed Gust Speed Precip Events Conditions
12:15 AM 64.4 °F 44.6 °F 49% 29.97 in 10.0 mi Calm Calm - N/A   Clear
12:35 AM 66.2 °F 42.8 °F 43% 29.97 in 10.0 mi Calm Calm - N/A   Clear
12:55 AM 64.4 °F 42.8 °F 45% 29.97 in 10.0 mi Calm Calm - N/A   Clear
1:15 AM 59.0 °F 44.6 °F 59% 29.97 in 10.0 mi NE 3.5 mph - N/A   Clear
1:35 AM 59.0 °F 42.8 °F 55% 29.97 in 10.0 mi Calm Calm - N/A   Clear
1:55 AM 57.2 °F 44.6 °F 63% 29.97 in 10.0 mi North 3.5 mph - N/A   Clear
2:15 AM 59.0 °F 42.8 °F 55% 29.97 in 10.0 mi Calm Calm - N/A   Clear
2:35 AM 59.0 °F 42.8 °F 55% 29.97 in 10.0 mi Calm Calm - N/A   Clear
2:55 AM 57.2 °F 42.8 °F 59% 29.97 in 10.0 mi Calm Calm - N/A   Clear
3:15 AM 55.4 °F 44.6 °F 67% 29.97 in 10.0 mi Calm Calm - N/A   Clear
3:35 AM 55.4 °F 42.8 °F 63% 29.97 in 10.0 mi Calm Calm - N/A   Clear
3:55 AM 55.4 °F 42.8 °F 63% 29.97 in 10.0 mi Calm Calm - N/A   Clear
4:15 AM 53.6 °F 42.8 °F 67% 29.97 in 10.0 mi Calm Calm - N/A   Clear
4:35 AM 53.6 °F 42.8 °F 67% 29.97 in 10.0 mi SE 3.5 mph - N/A   Clear
4:55 AM 53.6 °F 42.8 °F 67% 29.98 in 10.0 mi Calm Calm - N/A   Clear
5:15 AM 53.6 °F 41.0 °F 62% 29.98 in 10.0 mi Calm Calm - N/A   Clear
5:35 AM 53.6 °F 41.0 °F 62% 29.98 in 10.0 mi Calm Calm - N/A   Clear
5:55 AM 53.6 °F 42.8 °F 67% 29.98 in 10.0 mi Calm Calm - N/A   Clear
6:15 AM 51.8 °F 41.0 °F 67% 29.99 in 10.0 mi Calm Calm - N/A   Clear
6:35 AM 51.8 °F 41.0 °F 67% 29.99 in 10.0 mi Calm Calm - N/A   Clear
7:15 AM 53.6 °F 42.8 °F 67% 30.00 in 10.0 mi ENE 5.8 mph - N/A   Clear
7:35 AM 55.4 °F 42.8 °F 63% 30.01 in 10.0 mi East 3.5 mph - N/A   Clear
7:55 AM 57.2 °F 44.6 °F 63% 30.01 in 10.0 mi Calm Calm - N/A   Clear
8:15 AM 60.8 °F 42.8 °F 52% 30.01 in 10.0 mi East 3.5 mph - N/A   Clear
8:35 AM 62.6 °F 42.8 °F 48% 30.02 in 10.0 mi Calm Calm - N/A   Clear
8:55 AM 64.4 °F 44.6 °F 49% 30.02 in 10.0 mi Calm Calm - N/A   Clear
9:15 AM 66.2 °F 44.6 °F 46% 30.02 in 10.0 mi Calm Calm - N/A   Clear
9:35 AM 68.0 °F 44.6 °F 43% 30.02 in 10.0 mi WNW 3.5 mph - N/A   Clear
9:55 AM 69.8 °F 44.6 °F 40% 30.02 in 10.0 mi North 3.5 mph - N/A   Clear
10:15 AM 71.6 °F 46.4 °F 41% 30.02 in 10.0 mi Calm Calm - N/A   Clear
10:35 AM 73.4 °F 46.4 °F 38% 30.01 in 10.0 mi NNW 4.6 mph - N/A   Clear
10:55 AM 75.2 °F 46.4 °F 36% 30.01 in 10.0 mi North 3.5 mph - N/A   Clear
11:15 AM 75.2 °F 48.2 °F 38% 30.01 in 10.0 mi North 4.6 mph - N/A   Clear
11:35 AM 77.0 °F 48.2 °F 36% 30.00 in 10.0 mi North 5.8 mph - N/A   Clear
11:55 AM 78.8 °F 50.0 °F 36% 30.00 in 10.0 mi North 5.8 mph - N/A   Clear
12:15 PM 78.8 °F 50.0 °F 36% 30.00 in 10.0 mi NNW 3.5 mph - N/A   Clear
12:35 PM 80.6 °F 50.0 °F 34% 29.99 in 10.0 mi NNW 5.8 mph - N/A   Clear
1:35 PM 82.4 °F 51.8 °F 35% 29.98 in 10.0 mi North 5.8 mph - N/A   Clear
1:55 PM 84.2 °F 50.0 °F 30% 29.97 in 10.0 mi North 4.6 mph - N/A   Clear
2:15 PM 86.0 °F 48.2 °F 27% 29.97 in 10.0 mi NNW 3.5 mph - N/A   Clear
2:55 PM 89.6 °F 46.4 °F 22% 29.95 in 10.0 mi NNW 4.6 mph - N/A   Clear
3:15 PM 89.6 °F 44.6 °F 21% 29.94 in 10.0 mi North 8.1 mph - N/A   Clear
3:35 PM 89.6 °F 46.4 °F 22% 29.94 in 10.0 mi NW 5.8 mph - N/A   Clear
3:55 PM 89.6 °F 48.2 °F 24% 29.93 in 10.0 mi North 4.6 mph - N/A   Clear
4:15 PM 89.6 °F 46.4 °F 22% 29.92 in 10.0 mi NNW 6.9 mph - N/A   Clear
4:35 PM 89.6 °F 46.4 °F 22% 29.92 in 10.0 mi North 9.2 mph - N/A   Clear
4:55 PM 91.4 °F 46.4 °F 21% 29.91 in 10.0 mi NNW 6.9 mph - N/A   Clear
5:15 PM 89.6 °F 46.4 °F 22% 29.91 in 10.0 mi North 8.1 mph - N/A   Clear
5:35 PM 91.4 °F 44.6 °F 20% 29.90 in 10.0 mi Calm Calm - N/A   Clear
5:55 PM 91.4 °F 44.6 °F 20% 29.89 in 10.0 mi NNE 5.8 mph - N/A   Clear
6:15 PM 91.4 °F 44.6 °F 20% 29.88 in 10.0 mi North 10.4 mph - N/A   Clear
6:35 PM 89.6 °F 46.4 °F 22% 29.88 in 10.0 mi North 10.4 mph - N/A   Clear
6:55 PM 89.6 °F 46.4 °F 22% 29.88 in 10.0 mi North 10.4 mph 16.1 mph N/A   Clear
7:15 PM 87.8 °F 46.4 °F 24% 29.87 in 10.0 mi North 10.4 mph - N/A   Clear
7:35 PM 87.8 °F 46.4 °F 24% 29.87 in 10.0 mi NNE 9.2 mph - N/A   Clear
7:55 PM 86.0 °F 46.4 °F 25% 29.87 in 10.0 mi NNE 10.4 mph - N/A   Clear
8:15 PM 84.2 °F 50.0 °F 30% 29.87 in 10.0 mi NE 5.8 mph - N/A   Clear
8:35 PM 82.4 °F 50.0 °F 32% 29.86 in 10.0 mi NE 5.8 mph - N/A   Clear
8:55 PM 82.4 °F 48.2 °F 30% 29.86 in 10.0 mi NE 3.5 mph - N/A   Clear
9:15 PM 80.6 °F 50.0 °F 34% 29.87 in 10.0 mi Calm Calm - N/A   Clear
9:35 PM 82.4 °F 44.6 °F 26% 29.88 in 10.0 mi Calm Calm - N/A   Clear
9:55 PM 80.6 °F 44.6 °F 28% 29.88 in 10.0 mi West 3.5 mph - N/A   Clear
10:15 PM 77.0 °F 44.6 °F 32% 29.89 in 10.0 mi SW 3.5 mph - N/A   Clear
10:35 PM 77.0 °F 44.6 °F 32% 29.89 in 10.0 mi WSW 3.5 mph - N/A   Clear
10:55 PM 75.2 °F 44.6 °F 34% 29.90 in 10.0 mi WSW 3.5 mph - N/A   Clear
11:15 PM 73.4 °F 44.6 °F 36% 29.91 in 10.0 mi North 5.8 mph - N/A   Clear
11:35 PM 69.8 °F 46.4 °F 43% 29.90 in 10.0 mi NW 5.8 mph - N/A   Clear
11:55 PM 68.0 °F 46.4 °F 46% 29.91 in 10.0 mi NNW 3.5 mph - N/A   Clear